TimeCDT,TemperatureF,Dew PointF,Humidity,Sea Level PressureIn,VisibilityMPH,Wind Direction,Wind SpeedMPH,Gust SpeedMPH,PrecipitationIn,Events,Conditions,WindDirDegrees,DateUTC
12:48 AM,69.8,68.0,94,30.15,2.5,SE,5.8,-,N/A,,Clear,140,2012-10-13 05:48:00
12:53 AM,69.1,68.0,96,30.17,4.0,SE,4.6,-,N/A,,Clear,140,2012-10-13 05:53:00
1:53 AM,70.0,69.1,97,30.16,4.0,SE,4.6,-,N/A,,Clear,140,2012-10-13 06:53:00
2:17 AM,69.8,68.0,94,30.13,2.5,SE,3.5,-,N/A,,Mostly Cloudy,140,2012-10-13 07:17:00
2:21 AM,69.8,68.0,94,30.13,1.8,SE,4.6,-,N/A,,Mostly Cloudy,140,2012-10-13 07:21:00
2:32 AM,69.8,68.0,94,30.12,0.5,SE,4.6,-,N/A,Fog,Fog,140,2012-10-13 07:32:00
2:36 AM,69.8,68.0,94,30.12,0.2,SE,4.6,-,N/A,Fog,Fog,140,2012-10-13 07:36:00
2:45 AM,69.8,69.8,100,30.12,0.8,SE,4.6,-,N/A,,Mist,140,2012-10-13 07:45:00
2:49 AM,69.8,69.8,100,30.12,2.0,SE,4.6,-,N/A,,Overcast,130,2012-10-13 07:49:00
2:53 AM,70.0,69.1,97,30.15,2.0,SE,4.6,-,N/A,,Overcast,130,2012-10-13 07:53:00
3:18 AM,69.8,68.0,94,30.12,1.8,SE,3.5,-,N/A,,Scattered Clouds,130,2012-10-13 08:18:00
3:31 AM,69.8,69.8,100,30.12,3.0,SE,5.8,-,N/A,,Clear,130,2012-10-13 08:31:00
3:53 AM,69.1,68.0,96,30.13,3.0,SE,4.6,-,N/A,,Clear,130,2012-10-13 08:53:00
4:53 AM,70.0,69.1,97,30.14,5.0,East,3.5,-,N/A,,Clear,100,2012-10-13 09:53:00
5:53 AM,70.0,69.1,97,30.15,5.0,ESE,4.6,-,N/A,,Clear,110,2012-10-13 10:53:00
6:53 AM,70.0,69.1,97,30.16,5.0,ESE,5.8,-,N/A,,Clear,110,2012-10-13 11:53:00
7:53 AM,71.1,70.0,96,30.17,4.0,ESE,4.6,-,N/A,,Scattered Clouds,110,2012-10-13 12:53:00
8:53 AM,75.0,72.0,90,30.17,6.0,SE,10.4,-,N/A,,Clear,130,2012-10-13 13:53:00
9:53 AM,79.0,73.9,84,30.18,10.0,SE,11.5,-,N/A,,Scattered Clouds,140,2012-10-13 14:53:00
10:53 AM,82.0,72.0,71,30.18,10.0,SSE,15.0,20.7,N/A,,Mostly Cloudy,150,2012-10-13 15:53:00
11:09 AM,82.4,69.8,66,30.15,10.0,South,10.4,21.9,N/A,,Mostly Cloudy,170,2012-10-13 16:09:00
11:53 AM,84.9,70.0,61,30.17,10.0,SSE,15.0,21.9,N/A,,Mostly Cloudy,160,2012-10-13 16:53:00
12:53 PM,84.9,68.0,57,30.15,10.0,South,12.7,19.6,N/A,,Scattered Clouds,190,2012-10-13 17:53:00
1:53 PM,84.0,69.1,61,30.12,10.0,South,10.4,23.0,N/A,,Scattered Clouds,170,2012-10-13 18:53:00
2:53 PM,86.0,70.0,59,30.09,10.0,SSE,10.4,17.3,N/A,,Mostly Cloudy,160,2012-10-13 19:53:00
3:53 PM,84.0,69.1,61,30.09,10.0,South,10.4,19.6,N/A,,Partly Cloudy,180,2012-10-13 20:53:00
4:53 PM,82.9,71.1,67,30.08,10.0,SSE,13.8,19.6,N/A,,Partly Cloudy,160,2012-10-13 21:53:00
5:53 PM,81.0,71.1,72,30.06,10.0,South,11.5,-,N/A,,Scattered Clouds,170,2012-10-13 22:53:00
6:53 PM,78.8,71.6,78,30.04,10.0,SSE,9.2,-,N/A,,Scattered Clouds,160,2012-10-13 23:53:00
7:05 PM,78.8,71.6,78,30.03,10.0,SSE,8.1,-,N/A,,Mostly Cloudy,160,2012-10-14 00:05:00
7:22 PM,78.8,71.6,78,30.04,10.0,SSE,8.1,-,N/A,,Mostly Cloudy,160,2012-10-14 00:22:00
7:53 PM,77.0,71.1,82,30.08,10.0,SSE,8.1,-,N/A,,Scattered Clouds,160,2012-10-14 00:53:00
8:53 PM,73.4,71.6,94,30.06,10.0,SSE,6.9,-,N/A,,Clear,150,2012-10-14 01:53:00
9:53 PM,73.0,71.1,93,30.08,10.0,SSE,4.6,-,N/A,,Clear,150,2012-10-14 02:53:00
10:53 PM,75.9,71.1,85,30.08,10.0,SSE,8.1,-,N/A,,Clear,160,2012-10-14 03:53:00
11:53 PM,75.0,71.1,87,30.07,10.0,SSE,5.8,-,N/A,,Clear,160,2012-10-14 04:53:00